Вернуться в каталог

SL-12 R/B(2)

АктивенGEO
NORAD 13899·ROCKET BODY·🇷🇺 Russia

Запущен Mar 15, 1982 с Baikonur Cosmodrome

Loading…

TLE

СвежийSource: Space-Track

Эпоха: Sep 14, 2026, 14:20 UTC

1 13899U 82020F   26257.59772111 -.00000140  00000-0  00000-0 0  9993
2 13899   8.1095 299.3004 0026082 211.5636 172.1650  0.98636048121868

Отслеживайте SL-12 R/B(2) в реальном времени с AllMySat

Download on the App Store